Location: Mohawk View
(42.7837°N, 73.7885°W)
Time: 01:10:40
(UTC+00:00)

Cosmos 1777 Rocket - Pass Details

Date: 17 June 2021
Orbit: 757 x 776 km, 74.0° (Epoch: 02 August)

Event Time Altitude Azimuth Distance (km) Brightness Sun altitude
Rises 05:02:26 0° 339° (NNW) 3,258 8.4 -23.8°
Reaches altitude 10° 05:04:49 10° 339° (NNW) 2,329 7.4 -23.8°
Maximum altitude 05:10:08 86° 252° (WSW) 783 3.9 -23.8°
Enters shadow 05:10:59 64° 169° (S) 861 3.9 -23.7°
